Location: Ajisawe
(8.4333°N, 4.3833°E)
Time: 13:36:52
(UTC+00:00)

Courier 1B Rocket - Pass Details

Date: 01 May 2021
Orbit: 920 x 1202 km, 28.2° (Epoch: 07 May)

Event Time Altitude Azimuth Distance (km) Brightness Sun altitude
Rises 11:23:13 0° 238° (WSW) 3,837 8.0 82.1°
Reaches altitude 10° 11:26:01 10° 237° (WSW) 2,838 7.5 82.4°
Maximum altitude 11:32:54 79° 151° (SSE) 1,003 7.0 83.0°
Drops below altitude 10° 11:39:19 10° 65° (ENE) 2,657 7.5 83.2°
Sets 11:41:53 0° 64° (ENE) 3,578 8.0 83.2°
